Location: Newark
(42.8481°N, 0.4872°E)
Time: 08:34:50
(UTC+00:00)

SR - Pass Details

Date: 04 November 2020
Orbit: 579 x 876 km, 66.7° (Epoch: 29 November)

Event Time Altitude Azimuth Distance (km) Brightness Sun altitude
Rises 08:42:36 0° 333° (NNW) 3,079 ? 18.6°
Reaches altitude 10° 08:44:56 10° 338° (NNW) 2,205 ? 18.9°
Maximum altitude 08:49:51 51° 55° (NE) 954 ? 19.5°
Drops below altitude 10° 08:55:11 10° 131° (SE) 2,383 ? 20.2°
Sets 08:57:46 0° 136° (SE) 3,352 ? 20.5°
